[[{"header":{"parameterUnit":"m.s-1","parameterCategory":1,"la1":30.2992,"la2":30.254,"lo1":-89.0895,"lo2":-89.0443,"dy":0.0025,"dx":0.0025,"nx":19,"ny":19,"refTime":"2026-05-20T21:00:00:Z","depth":0,"parameterNumber":2,"parameterNumberName":"U-component_of_WINDS"},"data":[0,0,0,-1.7245,-1.7246,-1.7303,-1.7303,-1.7375,-1.7375,0,0,0,0,0,0,0,0,0,0,0,-1.7226,-1.7226,-1.7245,-1.7246,-1.7303,-1.7303,-1.7375,-1.7375,0,0,0,0,0,0,0,0,0,0,0,-1.7226,-1.7226,-1.7227,-1.7246,-1.7303,-1.7303,-1.7374,-1.7332,0,0,0,0,0,0,0,0,0,0,-1.7277,-1.7258,-1.7226,-1.7227,-1.7246,-1.7303,-1.7303,-1.733,-1.7335,-1.7348,0,-1.7359,0,-1.7368,-1.738,-1.738,0,0,0,-1.7247,-1.7254,-1.7271,-1.7227,-1.7247,-1.7303,-1.7278,-1.7333,-1.7338,-1.7354,-1.736,-1.7362,-1.7369,-1.738,-1.7381,-1.745,-1.745,0,0,-1.7244,-1.7236,-1.7267,-1.7274,-1.7264,-1.7276,-1.7279,-1.7336,-1.7342,-1.736,-1.7364,-1.737,-1.7381,-1.7381,-1.745,-1.745,0,0,0,-1.7234,-1.7233,-1.7249,-1.7271,-1.7282,-1.7277,-1.7282,-1.7339,-1.7345,-1.7365,-1.7371,-1.7381,-1.7382,-1.745,-1.745,-1.7453,0,0,0,-1.7232,-1.7227,-1.7247,-1.7243,-1.728,-1.7311,-1.7283,-1.7341,-1.7348,-1.7371,-1.7381,-1.7383,-1.7449,-1.745,-1.7453,-1.7456,0,0,0,-1.7223,-1.7226,-1.7234,-1.7242,-1.7266,-1.731,-1.7319,-1.7343,-1.7352,-1.738,-1.7383,-1.7449,-1.745,-1.7452,-1.7455,-1.7472,0,0,0,-1.721,-1.7237,-1.7234,-1.7266,-1.7266,-1.7312,-1.7319,-1.7354,-1.7379,-1.7382,-1.7449,-1.745,-1.7452,-1.7455,-1.7471,-1.7483,-1.7488,0,0,-1.7239,-1.724,-1.7259,-1.7258,-1.7302,-1.7304,-1.7349,-1.7381,-1.7392,-1.743,-1.7432,-1.7453,-1.7455,-1.7471,-1.7516,-1.752,0,0,0,-1.7265,-1.7279,-1.7293,-1.7316,-1.734,-1.7362,-1.7387,-1.7399,-1.7432,-1.741,-1.7464,-1.7466,-1.7475,-1.7482,-1.7485,-1.7493,-1.7453,-1.7453,-1.7452,-1.7292,-1.7305,-1.7338,-1.7357,-1.738,-1.7406,-1.7425,-1.7446,-1.7452,-1.7465,-1.7476,-1.7502,-1.7509,-1.7511,-1.752,-1.7484,-1.7484,-1.7484,-1.7484,-1.7334,-1.7356,-1.7363,-1.7398,-1.7411,-1.7441,-1.7468,-1.7471,-1.7501,-1.7494,-1.7504,-1.7495,-1.7514,-1.7523,-1.7485,-1.7485,-1.7485,-1.7485,-1.7484,-1.7353,-1.7365,-1.7379,-1.7414,-1.7439,-1.7458,-1.7486,-1.7498,-1.7509,-1.7518,-1.7531,-1.7531,-1.7532,-1.7524,-1.7524,-1.7524,-1.7524,-1.7524,-1.7524,-1.7367,-1.7382,-1.7404,-1.7432,-1.7448,-1.7471,-1.7498,-1.7515,-1.7536,-1.7543,-1.7543,-1.7548,-1.7514,-1.7505,-1.7526,-1.7525,-1.7525,-1.7525,-1.7525,-1.7404,-1.7398,-1.7431,-1.7447,-1.7481,-1.7506,-1.752,-1.7553,-1.7569,-1.7582,-1.7586,-1.7559,-1.7561,-1.7559,-1.7551,-1.7583,-1.7583,-1.7583,-1.7583,-1.742,-1.7422,-1.7459,-1.7484,-1.751,-1.7526,-1.7564,-1.7586,-1.7607,-1.7617,-1.7615,-1.7606,-1.7603,-1.7607,-1.7604,-1.7597,-1.7639,-1.7639,-1.764,-1.7443,-1.7449,-1.7478,-1.7498,-1.7525,-1.7549,-1.7585,-1.7614,-1.7637,-1.7642,-1.7626,-1.7623,-1.761,-1.7605,-1.7608,-1.7603,-1.7591,0,0]},{"header":{"parameterUnit":"m.s-1","parameterCategory":1,"la1":30.2992,"la2":30.254,"lo1":-89.0895,"lo2":-89.0443,"dy":0.0025,"dx":0.0025,"nx":19,"ny":19,"refTime":"2026-05-20T21:00:00:Z","depth":0,"parameterNumber":3,"parameterNumberName":"V-component_of_WINDS"},"data":[0,0,0,4.5751,4.5752,4.5773,4.5773,4.5817,4.5818,0,0,0,0,0,0,0,0,0,0,0,4.5755,4.5755,4.5751,4.5752,4.5773,4.5773,4.5817,4.5818,0,0,0,0,0,0,0,0,0,0,0,4.5754,4.5755,4.5756,4.5752,4.5773,4.5773,4.5817,4.5795,0,0,0,0,0,0,0,0,0,0,4.5771,4.5784,4.5755,4.5756,4.5752,4.5773,4.5773,4.5794,4.5796,4.5814,0,4.5833,0,4.5826,4.5822,4.5822,0,0,0,4.5745,4.5782,4.5779,4.5756,4.5753,4.5773,4.5762,4.5795,4.5798,4.5818,4.5833,4.5834,4.5827,4.5822,4.5822,4.595,4.5951,0,0,4.5744,4.5764,4.5777,4.5781,4.5779,4.5761,4.5762,4.5797,4.5815,4.5833,4.5835,4.5828,4.5822,4.5823,4.5949,4.595,0,0,0,4.5745,4.5763,4.5759,4.578,4.5783,4.5762,4.5763,4.5813,4.581,4.5836,4.5828,4.5823,4.5823,4.5948,4.595,4.6016,0,0,0,4.5744,4.5764,4.5759,4.5772,4.5782,4.5798,4.578,4.5808,4.5811,4.5828,4.5823,4.5824,4.5947,4.5949,4.6012,4.6044,0,0,0,4.575,4.5765,4.5771,4.5773,4.5783,4.5797,4.5796,4.5808,4.5807,4.5822,4.5824,4.5946,4.5949,4.6008,4.6038,4.6083,0,0,0,4.5762,4.583,4.5773,4.5845,4.5783,4.5838,4.5795,4.5835,4.5856,4.5823,4.5947,4.5949,4.6007,4.6034,4.608,4.6126,4.6147,0,0,4.5859,4.5842,4.5883,4.5833,4.5903,4.5833,4.5913,4.5913,4.5896,4.5933,4.5936,4.6013,4.6037,4.6083,4.6257,4.6274,0,0,0,4.5921,4.5951,4.5965,4.5986,4.5987,4.5991,4.5976,4.5976,4.6007,4.5919,4.6041,4.6055,4.6081,4.6102,4.6116,4.6137,4.596,4.596,4.5959,4.6088,4.6062,4.6128,4.6105,4.6125,4.6109,4.6124,4.6121,4.6089,4.6118,4.6129,4.6238,4.6264,4.6274,4.6297,4.6151,4.6151,4.6152,4.6152,4.6227,4.6266,4.6221,4.6269,4.6241,4.6282,4.6269,4.6245,4.6278,4.6228,4.6249,4.6197,4.6294,4.6312,4.6156,4.6156,4.6155,4.6155,4.6154,4.6334,4.6348,4.6346,4.6373,4.6397,4.6371,4.6405,4.6378,4.6353,4.6375,4.6383,4.6382,4.6378,4.6381,4.6381,4.6381,4.6382,4.6382,4.6382,4.6446,4.6442,4.6474,4.648,4.649,4.6499,4.6483,4.6492,4.6495,4.6473,4.6473,4.6439,4.6308,4.6276,4.6388,4.6387,4.6386,4.6386,4.6385,4.6598,4.6559,4.6609,4.6619,4.6624,4.6649,4.6614,4.6634,4.6638,4.6655,4.6616,4.6523,4.6505,4.6493,4.6466,4.6621,4.6621,4.6621,4.6621,4.6689,4.6676,4.6721,4.6738,4.6751,4.6724,4.6781,4.677,4.6752,4.6752,4.6725,4.6688,4.6677,4.6664,4.6649,4.6624,4.6815,4.6815,4.6816,4.6782,4.6769,4.6823,4.6803,4.6805,4.6808,4.686,4.6882,4.6853,4.6823,4.6752,4.6744,4.6682,4.6663,4.6632,4.6609,4.6562,0,0]}]]